Retour au catalogue

CZ-4C DEB

ActifLEO
NORAD 43418·DEBRIS·🇨🇳 China

Lancé Dec 10, 2014 depuis Jiuquan Satellite Launch Center

Loading…

Prochains Passages (prochaines 24 heures)

TLE

PériméSource: Space-Track

Époque: Aug 15, 2026, 06:52 UTC

1 43418U 14080G   26227.28627778  .00000044  00000-0  14468-3 0  9993
2 43418  63.3900 170.2355 0386342   9.4088 351.3911 13.45321779552974

Suivez CZ-4C DEB en temps réel avec AllMySat

Download on the App Store